AAL26 EDDF-KJFK

Flight info

Callsign AAL26
Flight time N/A
Altitude 36000
Route OBOKA5G OBOKA Z29 TORNU DCT VICOT DCT GALSO Q63 ERING L179 UGBET Q60 OKSAW DCT BIBPE DCT TIGWE DCT FELCA DCT FADZU DCT NICXI DCT OFSOX DCT SLANY DCT DIMUS DCT MALOT/M082F370 DCT 54N020W 54N030W 54N040W 53N050W DCT RIKAL/N0463F380 N572A TOPPS DCT ENE PARCH4
Aircraft MD11/H-SDE1E2E3FGHIJ2J3J4J5M1RWXY/LB1D1

Departure

Time N/A
Airport Frankfurt Main Airport (EDDF)

Arrival

Time 2026-05-06 03:58
Airport John F. Kennedy International Airport (KJFK)
Time Latitude Longitude Altitude Speed Heading
2026-05-06 01:34 50.69255 -57.28904 37810 ft 421 kts 240°
2026-05-06 01:34 50.67648 -57.32762 37810 ft 421 kts 239°
2026-05-06 01:34 50.64430 -57.40470 37811 ft 421 kts 239°
2026-05-06 01:35 50.61210 -57.48162 37812 ft 421 kts 239°
2026-05-06 01:35 50.58005 -57.55795 37802 ft 420 kts 239°
2026-05-06 01:36 50.54785 -57.63437 37810 ft 419 kts 239°
2026-05-06 01:36 50.51535 -57.71034 37809 ft 419 kts 239°
2026-05-06 01:37 50.48287 -57.78624 37815 ft 418 kts 239°
2026-05-06 01:37 50.45073 -57.86164 37813 ft 418 kts 239°
2026-05-06 01:38 50.41844 -57.93740 37810 ft 416 kts 239°
2026-05-06 01:38 50.38637 -58.01246 37814 ft 414 kts 239°
2026-05-06 01:39 50.35423 -58.08748 37814 ft 414 kts 239°
2026-05-06 01:39 50.32212 -58.16220 37818 ft 414 kts 239°
2026-05-06 01:40 50.29014 -58.23641 37812 ft 414 kts 239°
2026-05-06 01:40 50.25793 -58.31092 37809 ft 412 kts 238°
2026-05-06 01:41 50.22579 -58.38506 37809 ft 412 kts 238°
2026-05-06 01:41 50.19384 -58.45857 37815 ft 412 kts 238°
2026-05-06 01:42 50.16167 -58.53238 37809 ft 412 kts 238°
2026-05-06 01:42 50.12941 -58.60618 37812 ft 412 kts 238°
2026-05-06 01:43 50.09711 -58.67988 37813 ft 412 kts 238°
2026-05-06 01:43 50.06462 -58.75337 37805 ft 412 kts 238°
2026-05-06 01:44 50.03213 -58.82610 37805 ft 412 kts 238°
2026-05-06 01:44 49.99954 -58.89940 37804 ft 412 kts 238°
2026-05-06 01:45 49.96701 -58.97273 37807 ft 414 kts 238°
2026-05-06 01:45 49.93435 -59.04620 37803 ft 414 kts 238°
2026-05-06 01:46 49.90184 -59.11915 37803 ft 414 kts 238°
2026-05-06 01:46 49.86906 -59.19249 37797 ft 414 kts 238°
2026-05-06 01:47 49.83622 -59.26575 37799 ft 414 kts 237°
2026-05-06 01:47 49.80333 -59.33894 37789 ft 413 kts 237°
2026-05-06 01:48 49.77059 -59.41157 37798 ft 411 kts 237°
2026-05-06 01:48 49.73784 -59.48404 37798 ft 411 kts 237°
2026-05-06 01:49 49.70527 -59.55592 37798 ft 411 kts 237°
2026-05-06 01:49 49.67245 -59.62816 37793 ft 411 kts 237°
2026-05-06 01:50 49.63958 -59.70029 37775 ft 410 kts 237°
2026-05-06 01:50 49.60680 -59.77201 37786 ft 409 kts 237°
2026-05-06 01:51 49.57398 -59.84280 37791 ft 408 kts 237°
2026-05-06 01:51 49.54100 -59.91392 37790 ft 408 kts 237°
2026-05-06 01:52 49.50809 -59.98517 37791 ft 408 kts 237°
2026-05-06 01:52 49.47520 -60.05636 37789 ft 408 kts 237°
2026-05-06 01:53 49.44226 -60.12750 37784 ft 408 kts 237°
2026-05-06 01:53 49.40949 -60.19809 37783 ft 408 kts 237°
2026-05-06 01:54 49.37645 -60.26907 37785 ft 409 kts 237°
2026-05-06 01:54 49.34335 -60.33997 37785 ft 409 kts 237°
2026-05-06 01:55 49.31032 -60.41053 37779 ft 407 kts 237°
2026-05-06 01:55 49.27734 -60.48083 37783 ft 406 kts 237°
2026-05-06 01:56 49.24455 -60.55053 37777 ft 406 kts 237°
2026-05-06 01:56 49.21150 -60.62060 37775 ft 406 kts 237°
2026-05-06 01:57 49.17841 -60.69057 37776 ft 406 kts 237°
2026-05-06 01:57 49.14533 -60.76031 37775 ft 405 kts 237°
2026-05-06 01:58 49.11246 -60.82929 37772 ft 405 kts 236°
2026-05-06 01:58 49.07906 -60.89845 37782 ft 405 kts 236°
2026-05-06 01:59 49.04575 -60.96766 37772 ft 405 kts 236°
2026-05-06 01:59 49.01252 -61.03689 37764 ft 404 kts 237°
2026-05-06 02:00 48.97966 -61.10527 37773 ft 403 kts 236°
2026-05-06 02:00 48.94656 -61.17401 37788 ft 403 kts 236°
2026-05-06 02:01 48.91326 -61.24299 37778 ft 404 kts 236°
2026-05-06 02:01 48.87994 -61.31182 37773 ft 405 kts 236°
2026-05-06 02:02 48.84654 -61.38063 37773 ft 404 kts 236°
2026-05-06 02:02 48.81336 -61.44883 37774 ft 404 kts 236°
2026-05-06 02:03 48.77992 -61.51737 37774 ft 404 kts 236°
2026-05-06 02:03 48.74645 -61.58581 37779 ft 404 kts 236°
2026-05-06 02:04 48.71294 -61.65415 37779 ft 404 kts 236°
2026-05-06 02:04 48.67946 -61.72225 37780 ft 402 kts 236°
2026-05-06 02:05 48.64637 -61.78939 37784 ft 401 kts 235°
2026-05-06 02:05 48.61291 -61.85682 37783 ft 401 kts 235°
2026-05-06 02:06 48.57924 -61.92397 37781 ft 401 kts 235°
2026-05-06 02:06 48.54590 -61.99074 37781 ft 401 kts 235°
2026-05-06 02:07 48.51246 -62.05783 37783 ft 399 kts 235°
2026-05-06 02:07 48.47911 -62.12464 37785 ft 399 kts 235°
2026-05-06 02:08 48.44571 -62.19142 37791 ft 399 kts 235°
2026-05-06 02:08 48.41223 -62.25818 37787 ft 400 kts 235°
2026-05-06 02:09 48.37884 -62.32461 37763 ft 401 kts 235°
2026-05-06 02:09 48.34517 -62.39142 37785 ft 401 kts 234°
2026-05-06 02:10 48.31146 -62.45814 37782 ft 401 kts 234°
2026-05-06 02:10 48.27774 -62.52471 37782 ft 401 kts 234°
2026-05-06 02:11 48.24396 -62.59124 37778 ft 401 kts 234°
2026-05-06 02:11 48.21039 -62.65720 37768 ft 400 kts 234°
2026-05-06 02:12 48.17664 -62.72335 37771 ft 399 kts 234°
2026-05-06 02:12 48.14288 -62.78935 37772 ft 399 kts 234°
2026-05-06 02:13 48.10922 -62.85470 37774 ft 399 kts 233°
2026-05-06 02:13 48.07515 -62.92018 37774 ft 399 kts 233°
2026-05-06 02:14 48.04119 -62.98577 37771 ft 399 kts 233°
2026-05-06 02:14 48.00730 -63.05129 37768 ft 398 kts 233°
2026-05-06 02:15 47.97342 -63.11673 37769 ft 398 kts 233°
2026-05-06 02:15 47.93970 -63.18171 37769 ft 398 kts 233°
2026-05-06 02:16 47.90573 -63.24701 37765 ft 398 kts 233°
2026-05-06 02:16 47.87172 -63.31223 37767 ft 399 kts 233°
2026-05-06 02:17 47.83771 -63.37730 37768 ft 398 kts 233°
2026-05-06 02:17 47.80386 -63.44190 37763 ft 398 kts 233°
2026-05-06 02:18 47.76974 -63.50685 37762 ft 398 kts 233°
2026-05-06 02:18 47.73559 -63.57171 37763 ft 398 kts 233°
2026-05-06 02:19 47.70150 -63.63632 37765 ft 397 kts 233°
2026-05-06 02:19 47.66761 -63.70038 37769 ft 397 kts 233°
2026-05-06 02:20 47.61640 -63.79690 37766 ft 397 kts 233°
2026-05-06 02:21 47.58196 -63.86094 37747 ft 397 kts 233°
2026-05-06 02:21 47.54780 -63.92443 37768 ft 397 kts 233°
2026-05-06 02:22 47.51352 -63.98836 37771 ft 396 kts 233°
2026-05-06 02:22 47.47925 -64.05228 37774 ft 396 kts 233°
2026-05-06 02:23 47.44499 -64.11605 37773 ft 396 kts 233°
2026-05-06 02:23 47.41066 -64.17982 37788 ft 397 kts 233°
2026-05-06 02:24 47.37646 -64.24320 37774 ft 398 kts 233°
2026-05-06 02:24 47.34193 -64.30704 37779 ft 398 kts 233°
2026-05-06 02:25 47.30734 -64.37082 37780 ft 398 kts 232°
2026-05-06 02:25 47.27271 -64.43455 37794 ft 399 kts 232°
2026-05-06 02:26 47.23819 -64.49792 37791 ft 400 kts 232°
2026-05-06 02:26 47.20339 -64.56164 37790 ft 400 kts 232°
2026-05-06 02:27 47.16852 -64.62535 37783 ft 400 kts 232°
2026-05-06 02:27 47.13362 -64.68897 37782 ft 400 kts 232°
2026-05-06 02:28 47.09869 -64.75250 37793 ft 400 kts 232°
2026-05-06 02:28 47.06374 -64.81531 37785 ft 400 kts 232°
2026-05-06 02:29 47.02849 -64.87856 37792 ft 400 kts 232°
2026-05-06 02:29 46.99335 -64.94184 37789 ft 400 kts 232°
2026-05-06 02:30 46.95824 -65.00509 37789 ft 400 kts 232°
2026-05-06 02:30 46.92307 -65.06831 37784 ft 401 kts 232°
2026-05-06 02:31 46.88684 -65.12938 37788 ft 401 kts 231°
2026-05-06 02:31 46.85200 -65.19288 37807 ft 401 kts 233°
2026-05-06 02:32 46.81720 -65.25696 37790 ft 403 kts 232°
2026-05-06 02:32 46.78187 -65.32058 37796 ft 404 kts 232°
2026-05-06 02:33 46.74653 -65.38352 37796 ft 404 kts 232°
2026-05-06 02:33 46.73447 -65.40492 37796 ft 404 kts 232°
2026-05-06 02:34 46.67516 -65.50990 37804 ft 404 kts 232°
2026-05-06 02:34 46.63940 -65.57300 37809 ft 404 kts 231°
2026-05-06 02:35 46.60362 -65.63602 37805 ft 404 kts 232°
2026-05-06 02:35 46.56799 -65.69860 37804 ft 404 kts 231°
2026-05-06 02:36 46.53190 -65.76122 37809 ft 404 kts 231°
2026-05-06 02:36 46.49580 -65.82387 37811 ft 404 kts 231°
2026-05-06 02:37 46.45979 -65.88654 37811 ft 405 kts 231°
2026-05-06 02:37 46.42397 -65.94888 37814 ft 405 kts 231°
2026-05-06 02:38 46.38782 -66.01149 37813 ft 405 kts 231°
2026-05-06 02:38 46.35120 -66.07357 37811 ft 405 kts 231°
2026-05-06 02:39 46.31452 -66.13546 37820 ft 405 kts 231°
2026-05-06 02:39 46.27807 -66.19694 37823 ft 405 kts 231°
2026-05-06 02:40 46.24136 -66.25878 37823 ft 405 kts 231°
2026-05-06 02:40 46.20464 -66.32051 37816 ft 406 kts 231°
2026-05-06 02:41 46.16781 -66.38229 37826 ft 406 kts 231°
2026-05-06 02:41 46.13121 -66.44353 37828 ft 406 kts 231°
2026-05-06 02:42 46.09436 -66.50505 37826 ft 405 kts 231°
2026-05-06 02:42 46.05748 -66.56650 37813 ft 405 kts 231°
2026-05-06 02:43 46.02057 -66.62785 37817 ft 406 kts 231°
2026-05-06 02:43 45.98364 -66.68911 37813 ft 406 kts 231°
2026-05-06 02:44 45.94682 -66.75004 37827 ft 406 kts 231°
2026-05-06 02:44 45.90977 -66.81121 37826 ft 406 kts 231°
2026-05-06 02:45 45.87266 -66.87235 37826 ft 406 kts 231°
2026-05-06 02:45 45.83539 -66.93333 37811 ft 407 kts 231°
2026-05-06 02:46 45.79815 -66.99382 37828 ft 408 kts 231°
2026-05-06 02:46 45.76077 -67.05472 37836 ft 406 kts 231°
2026-05-06 02:47 45.72355 -67.11545 37833 ft 405 kts 231°
2026-05-06 02:47 45.68638 -67.17603 37833 ft 405 kts 231°
2026-05-06 02:48 45.64900 -67.23681 37836 ft 408 kts 231°
2026-05-06 02:48 45.61176 -67.29723 37836 ft 408 kts 231°
2026-05-06 02:49 45.57425 -67.35794 37840 ft 408 kts 231°
2026-05-06 02:49 45.53668 -67.41863 37841 ft 408 kts 231°
2026-05-06 02:50 45.49906 -67.47925 37845 ft 409 kts 231°
2026-05-06 02:50 45.46160 -67.53948 37846 ft 409 kts 231°
2026-05-06 02:51 45.42385 -67.60006 37846 ft 409 kts 231°
2026-05-06 02:51 45.38606 -67.66057 37853 ft 409 kts 231°
2026-05-06 02:52 45.34824 -67.72099 37844 ft 410 kts 231°
2026-05-06 02:52 45.31047 -67.78119 37862 ft 411 kts 231°
2026-05-06 02:53 45.27223 -67.84154 37869 ft 411 kts 231°
2026-05-06 02:53 45.23394 -67.90183 37859 ft 412 kts 231°
2026-05-06 02:54 45.19559 -67.96241 37861 ft 414 kts 231°
2026-05-06 02:54 45.15728 -68.02292 37869 ft 416 kts 231°
2026-05-06 02:55 45.11859 -68.08392 37871 ft 416 kts 231°
2026-05-06 02:55 45.07984 -68.14487 37878 ft 416 kts 231°
2026-05-06 02:56 45.04106 -68.20576 37870 ft 417 kts 231°
2026-05-06 02:56 45.00237 -68.26635 37870 ft 418 kts 231°
2026-05-06 02:57 44.96340 -68.32726 37864 ft 418 kts 231°
2026-05-06 02:57 44.92434 -68.38817 37869 ft 418 kts 231°
2026-05-06 02:58 44.88524 -68.44901 37850 ft 419 kts 231°
2026-05-06 02:58 44.84600 -68.50994 37859 ft 420 kts 231°
2026-05-06 02:59 44.80693 -68.57047 37855 ft 420 kts 231°
2026-05-06 02:59 44.76754 -68.63135 37851 ft 420 kts 231°
2026-05-06 03:00 44.72806 -68.69202 37850 ft 421 kts 231°
2026-05-06 03:00 44.68839 -68.75251 37866 ft 421 kts 231°
2026-05-06 03:01 44.64906 -68.81267 37849 ft 421 kts 231°
2026-05-06 03:01 44.60948 -68.87328 37865 ft 421 kts 231°
2026-05-06 03:02 44.56985 -68.93389 37852 ft 423 kts 231°
2026-05-06 03:02 44.52993 -68.99482 37848 ft 425 kts 231°
2026-05-06 03:03 44.48994 -69.05568 37846 ft 425 kts 231°
2026-05-06 03:03 44.45012 -69.11617 37853 ft 425 kts 231°
2026-05-06 03:04 44.41635 -69.16737 37837 ft 426 kts 231°
2026-05-06 03:04 44.39149 -69.20501 37839 ft 428 kts 231°
2026-05-06 03:05 44.35107 -69.26608 37843 ft 428 kts 231°
2026-05-06 03:05 44.31058 -69.32712 37848 ft 428 kts 231°
2026-05-06 03:06 44.27042 -69.38753 37846 ft 428 kts 231°
2026-05-06 03:06 44.22980 -69.44851 37854 ft 429 kts 231°
2026-05-06 03:07 44.18911 -69.50945 37864 ft 429 kts 231°
2026-05-06 03:07 44.14831 -69.57000 37872 ft 428 kts 231°
2026-05-06 03:08 44.10777 -69.63001 37867 ft 428 kts 231°
2026-05-06 03:08 44.06696 -69.69061 37877 ft 429 kts 231°
2026-05-06 03:09 44.02619 -69.75113 37878 ft 429 kts 231°
2026-05-06 03:09 43.98534 -69.81166 37878 ft 429 kts 231°
2026-05-06 03:10 43.94469 -69.87177 37870 ft 431 kts 230°
2026-05-06 03:10 43.90356 -69.93247 37877 ft 432 kts 230°
2026-05-06 03:11 43.86238 -69.99308 37877 ft 432 kts 230°
2026-05-06 03:11 43.82111 -70.05368 37879 ft 432 kts 230°
2026-05-06 03:12 43.77980 -70.11423 37873 ft 433 kts 230°
2026-05-06 03:12 43.73870 -70.17435 37859 ft 433 kts 230°
2026-05-06 03:13 43.69730 -70.23477 37860 ft 433 kts 230°
2026-05-06 03:13 43.65584 -70.29514 37843 ft 433 kts 230°
2026-05-06 03:14 43.61444 -70.35529 37854 ft 431 kts 231°
2026-05-06 03:14 43.57321 -70.41463 37859 ft 431 kts 231°
2026-05-06 03:15 43.53169 -70.47431 37863 ft 431 kts 231°
2026-05-06 03:15 43.49023 -70.53407 37848 ft 432 kts 230°
2026-05-06 03:16 43.44749 -70.59263 37856 ft 437 kts 223°
2026-05-06 03:16 43.42196 -70.61579 37859 ft 444 kts 212°
2026-05-06 03:16 43.39351 -70.63277 37861 ft 449 kts 205°
2026-05-06 03:17 43.33433 -70.65968 37856 ft 451 kts 203°
2026-05-06 03:17 43.27488 -70.68660 37859 ft 449 kts 204°
2026-05-06 03:18 43.21600 -70.71490 37853 ft 448 kts 204°
2026-05-06 03:18 43.15738 -70.74371 37851 ft 448 kts 204°
2026-05-06 03:19 43.09869 -70.77260 37851 ft 448 kts 204°
2026-05-06 03:19 43.04044 -70.80117 37852 ft 448 kts 204°
2026-05-06 03:20 42.95239 -70.84421 37848 ft 447 kts 204°
2026-05-06 03:20 42.89375 -70.87278 37858 ft 447 kts 204°
2026-05-06 03:21 42.83541 -70.90121 37903 ft 451 kts 204°
2026-05-06 03:21 42.77622 -70.92984 37886 ft 452 kts 204°
2026-05-06 03:22 42.71699 -70.95841 37916 ft 452 kts 204°
2026-05-06 03:22 42.65780 -70.98699 37902 ft 452 kts 204°
2026-05-06 03:23 42.59899 -71.01536 37901 ft 451 kts 203°
2026-05-06 03:23 42.53991 -71.04382 37906 ft 451 kts 203°
2026-05-06 03:24 42.48075 -71.07225 37913 ft 451 kts 203°
2026-05-06 03:24 42.42166 -71.10060 37907 ft 451 kts 203°
2026-05-06 03:25 42.36252 -71.12891 37919 ft 451 kts 203°
2026-05-06 03:25 42.30379 -71.15697 37937 ft 451 kts 203°
2026-05-06 03:26 42.24465 -71.18516 37922 ft 450 kts 203°
2026-05-06 03:26 42.18555 -71.21328 37927 ft 450 kts 203°
2026-05-06 03:27 42.12645 -71.24134 37936 ft 450 kts 203°
2026-05-06 03:27 42.06730 -71.26937 37933 ft 451 kts 203°
2026-05-06 03:28 42.00853 -71.29709 37951 ft 451 kts 202°
2026-05-06 03:28 41.94924 -71.32492 37951 ft 451 kts 202°
2026-05-06 03:29 41.88997 -71.35279 37923 ft 451 kts 202°
2026-05-06 03:29 41.83076 -71.38062 37968 ft 451 kts 202°
2026-05-06 03:30 41.77174 -71.40832 37971 ft 451 kts 202°
2026-05-06 03:30 41.71418 -71.43920 37969 ft 445 kts 213°
2026-05-06 03:31 41.66495 -71.48842 37978 ft 441 kts 224°
2026-05-06 03:31 41.61899 -71.54269 37967 ft 441 kts 224°
2026-05-06 03:32 41.57241 -71.59654 37962 ft 445 kts 224°
2026-05-06 03:32 41.52530 -71.64959 37937 ft 446 kts 223°
2026-05-06 03:33 41.47773 -71.70260 37812 ft 440 kts 223°
2026-05-06 03:33 41.45434 -71.72856 36962 ft 435 kts 223°
2026-05-06 03:33 41.43127 -71.75417 36228 ft 428 kts 223°
2026-05-06 03:34 41.40869 -71.77921 35616 ft 419 kts 224°
2026-05-06 03:34 41.38636 -71.80399 35072 ft 416 kts 224°
2026-05-06 03:34 41.36416 -71.82863 34545 ft 416 kts 224°
2026-05-06 03:34 41.34225 -71.85294 34020 ft 416 kts 224°
2026-05-06 03:35 41.32004 -71.87757 33435 ft 415 kts 224°
2026-05-06 03:35 41.29781 -71.90218 32886 ft 416 kts 224°
2026-05-06 03:35 41.27553 -71.92673 32318 ft 414 kts 223°
2026-05-06 03:35 41.25345 -71.95097 31754 ft 411 kts 223°
2026-05-06 03:36 41.23137 -71.97522 31195 ft 412 kts 222°
2026-05-06 03:36 41.20927 -71.99951 30625 ft 412 kts 222°
2026-05-06 03:36 41.18715 -72.02384 30076 ft 413 kts 222°
2026-05-06 03:36 41.16493 -72.04827 29458 ft 416 kts 222°
2026-05-06 03:37 41.14257 -72.07284 28873 ft 418 kts 222°
2026-05-06 03:37 41.12066 -72.09737 28306 ft 418 kts 224°
2026-05-06 03:37 41.10082 -72.12547 27737 ft 417 kts 235°
2026-05-06 03:37 41.08648 -72.15863 27177 ft 416 kts 247°
2026-05-06 03:38 41.07635 -72.19468 26625 ft 418 kts 252°
2026-05-06 03:38 41.06789 -72.23148 26032 ft 417 kts 253°
2026-05-06 03:38 41.05981 -72.26834 25443 ft 414 kts 253°
2026-05-06 03:38 41.05169 -72.30464 24843 ft 409 kts 252°
2026-05-06 03:39 41.04336 -72.34052 24264 ft 405 kts 252°
2026-05-06 03:39 41.03501 -72.37551 23683 ft 402 kts 251°
2026-05-06 03:39 41.02648 -72.41055 23032 ft 398 kts 251°
2026-05-06 03:39 41.01794 -72.44527 22410 ft 394 kts 251°
2026-05-06 03:40 41.00944 -72.47962 21846 ft 391 kts 251°
2026-05-06 03:40 41.00100 -72.51367 21265 ft 387 kts 251°
2026-05-06 03:40 40.99263 -72.54733 20717 ft 384 kts 251°
2026-05-06 03:40 40.98711 -72.56954 20351 ft 382 kts 251°
2026-05-06 03:41 40.97605 -72.61394 19630 ft 377 kts 251°
2026-05-06 03:41 40.96788 -72.64667 19089 ft 372 kts 251°
2026-05-06 03:41 40.95978 -72.67909 18549 ft 369 kts 251°
2026-05-06 03:41 40.95187 -72.71073 17967 ft 367 kts 251°
2026-05-06 03:42 40.94387 -72.74265 17405 ft 364 kts 251°
2026-05-06 03:42 40.93533 -72.77404 16834 ft 362 kts 245°
2026-05-06 03:42 40.92241 -72.80231 16315 ft 360 kts 230°
2026-05-06 03:42 40.90422 -72.82494 15787 ft 360 kts 220°
2026-05-06 03:43 40.89104 -72.83809 15444 ft 360 kts 218°
2026-05-06 03:43 40.87050 -72.85714 14958 ft 359 kts 217°
2026-05-06 03:43 40.85002 -72.87584 14466 ft 358 kts 217°
2026-05-06 03:43 40.82312 -72.90076 13792 ft 355 kts 217°
2026-05-06 03:44 40.80959 -72.91348 13413 ft 353 kts 217°
2026-05-06 03:44 40.78336 -72.93841 12712 ft 349 kts 217°
2026-05-06 03:44 40.76378 -72.95716 12214 ft 347 kts 217°
2026-05-06 03:44 40.74441 -72.97579 11735 ft 342 kts 217°
2026-05-06 03:45 40.72620 -72.99589 11331 ft 340 kts 226°
2026-05-06 03:45 40.71226 -73.02065 11185 ft 328 kts 241°
2026-05-06 03:45 40.70680 -73.03875 11119 ft 316 kts 253°
2026-05-06 03:45 40.70451 -73.06670 11018 ft 301 kts 269°
2026-05-06 03:46 40.70862 -73.09318 10889 ft 290 kts 285°
2026-05-06 03:46 40.71671 -73.11703 10778 ft 284 kts 291°
2026-05-06 03:46 40.72884 -73.14743 10594 ft 282 kts 291°
2026-05-06 03:46 40.73505 -73.16280 10373 ft 282 kts 291°
2026-05-06 03:47 40.74713 -73.19298 9744 ft 280 kts 292°
2026-05-06 03:47 40.75320 -73.20830 9385 ft 278 kts 292°
2026-05-06 03:47 40.76199 -73.23055 8909 ft 277 kts 292°
2026-05-06 03:47 40.77082 -73.25307 8414 ft 276 kts 292°
2026-05-06 03:48 40.77959 -73.27551 7959 ft 274 kts 292°
2026-05-06 03:48 40.78765 -73.29767 7513 ft 262 kts 283°
2026-05-06 03:48 40.79077 -73.32072 7131 ft 251 kts 270°
2026-05-06 03:48 40.79165 -73.34363 6747 ft 248 kts 268°
2026-05-06 03:49 40.79213 -73.36616 6374 ft 244 kts 267°
2026-05-06 03:49 40.79253 -73.38845 5986 ft 242 kts 267°
2026-05-06 03:49 40.79292 -73.41050 5606 ft 239 kts 267°
2026-05-06 03:49 40.79328 -73.43205 5256 ft 237 kts 267°
2026-05-06 03:50 40.79366 -73.45353 4935 ft 230 kts 266°
2026-05-06 03:50 40.79402 -73.47477 4613 ft 231 kts 266°
2026-05-06 03:50 40.79437 -73.49592 4281 ft 230 kts 266°
2026-05-06 03:50 40.79472 -73.51687 3933 ft 228 kts 265°
2026-05-06 03:51 40.79506 -73.53765 3633 ft 225 kts 265°
2026-05-06 03:51 40.79545 -73.55732 3327 ft 199 kts 264°
2026-05-06 03:51 40.79584 -73.57409 3059 ft 169 kts 263°
2026-05-06 03:51 40.79616 -73.58836 2972 ft 145 kts 261°
2026-05-06 03:52 40.79635 -73.60147 2963 ft 141 kts 261°
2026-05-06 03:52 40.79592 -73.61396 2993 ft 131 kts 253°
2026-05-06 03:52 40.79377 -73.62477 2737 ft 116 kts 241°
2026-05-06 03:52 40.79006 -73.63370 2516 ft 110 kts 232°
2026-05-06 03:53 40.78487 -73.64131 2530 ft 121 kts 223°
2026-05-06 03:53 40.77774 -73.64800 2535 ft 128 kts 217°
2026-05-06 03:53 40.77039 -73.65465 2490 ft 129 kts 218°
2026-05-06 03:53 40.76290 -73.66128 2496 ft 130 kts 218°
2026-05-06 03:54 40.75530 -73.66783 2487 ft 131 kts 217°
2026-05-06 03:54 40.74767 -73.67417 2316 ft 129 kts 215°
2026-05-06 03:54 40.74010 -73.68000 2150 ft 127 kts 215°
2026-05-06 03:54 40.73256 -73.68587 2024 ft 124 kts 214°
2026-05-06 03:55 40.72525 -73.69158 1844 ft 121 kts 214°
2026-05-06 03:55 40.71807 -73.69722 1686 ft 119 kts 214°
2026-05-06 03:55 40.71133 -73.70249 1452 ft 104 kts 214°
2026-05-06 03:55 40.70507 -73.70744 1337 ft 106 kts 213°
2026-05-06 03:56 40.69870 -73.71246 1277 ft 107 kts 214°
2026-05-06 03:56 40.69234 -73.71751 1102 ft 108 kts 212°
2026-05-06 03:56 40.68581 -73.72268 1001 ft 111 kts 212°
2026-05-06 03:56 40.67908 -73.72804 820 ft 120 kts 212°
2026-05-06 03:57 40.67193 -73.73399 673 ft 123 kts 210°
2026-05-06 03:57 40.66449 -73.73971 523 ft 124 kts 208°
2026-05-06 03:57 40.65708 -73.74555 369 ft 123 kts 210°
2026-05-06 03:57 40.64966 -73.75148 184 ft 125 kts 206°
2026-05-06 03:58 40.64230 -73.75717 38 ft 119 kts 207°
2026-05-06 03:58 40.63653 -73.76167 29 ft 72 kts 211°
2026-05-06 03:58 40.63330 -73.76420 29 ft 36 kts 210°
2026-05-06 03:58 40.63160 -73.76553 28 ft 23 kts 210°
2026-05-06 03:59 40.63066 -73.76632 27 ft 12 kts 219°
2026-05-06 03:59 40.63008 -73.76718 28 ft 16 kts 235°
2026-05-06 03:59 40.62938 -73.76879 28 ft 21 kts 247°
2026-05-06 03:59 40.62933 -73.77010 27 ft 10 kts 283°
2026-05-06 04:00 40.62960 -73.77067 28 ft 8 kts 306°
2026-05-06 04:00 40.63009 -73.77155 28 ft 19 kts 306°
2026-05-06 04:00 40.63092 -73.77329 29 ft 18 kts 301°
2026-05-06 04:00 40.63143 -73.77441 29 ft 13 kts 301°
2026-05-06 04:01 40.63204 -73.77574 30 ft 22 kts 301°
2026-05-06 04:01 40.63296 -73.77777 31 ft 28 kts 301°
2026-05-06 04:01 40.63397 -73.78010 28 ft 30 kts 300°
2026-05-06 04:01 40.63494 -73.78231 28 ft 25 kts 300°
2026-05-06 04:02 40.63576 -73.78412 29 ft 21 kts 302°
2026-05-06 04:02 40.63643 -73.78556 28 ft 17 kts 301°
2026-05-06 04:02 40.63714 -73.78714 29 ft 23 kts 301°
2026-05-06 04:02 40.63802 -73.78910 28 ft 25 kts 300°
2026-05-06 04:03 40.63890 -73.79102 28 ft 24 kts 301°
2026-05-06 04:03 40.63975 -73.79289 28 ft 23 kts 301°
2026-05-06 04:03 40.64051 -73.79448 28 ft 19 kts 308°
2026-05-06 04:03 40.64154 -73.79507 28 ft 15 kts 360°
2026-05-06 04:04 40.64269 -73.79499 28 ft 18 kts
2026-05-06 04:04 40.64404 -73.79491 28 ft 21 kts 360°
2026-05-06 04:04 40.64559 -73.79510 27 ft 24 kts 351°
2026-05-06 04:04 40.64670 -73.79591 26 ft 9 kts 322°
2026-05-06 04:05 40.64705 -73.79616 30 ft 3 kts 342°
2026-05-06 04:05 40.64728 -73.79617 27 ft 5 kts
2026-05-06 04:05 40.64766 -73.79587 27 ft 8 kts 41°
2026-05-06 04:05 40.64804 -73.79535 29 ft 8 kts 50°
2026-05-06 04:06 40.64808 -73.79528 28 ft 0 kts 51°
2026-05-06 04:06 40.64809 -73.79528 28 ft 2 kts 51°
2026-05-06 04:07 40.64830 -73.79488 25 ft 3 kts 56°
2026-05-06 04:07 40.64830 -73.79487 25 ft 0 kts 56°
2026-05-06 04:07 40.64756 -73.79421 28 ft 0 kts 150°